Vorticity
nan nan nan nan nan nan nan nan nan nan nan nan nan nan nan nan nan nan nan nan nan nan nan nan nan nan nan nan nan nan nan nan nan nan nan nan nan nan nan nan nan nan nan nan
nan 8 6 7 8 11 11 13 13 9 5 8 11 9 12 8 9 7 7 8 7 8 14 12 11 10 5 10 11 8 8 9 7 4 7 11 11 10 12 10 11 10 9 nan
nan 3 3 8 9 11 11 8 7 7 9 13 14 10 9 11 8 6 9 10 9 8 8 14 14 10 10 9 10 14 12 10 7 4 0 5 10 11 11 10 11 12 14 nan
nan 9 5 9 10 9 4 4 5 7 13 12 4 12 10 14 8 7 5 6 8 8 11 9 8 11 10 9 10 12 15 13 10 9 8 2 3 6 7 9 9 12 13 nan
nan 7 12 13 9 8 6 6 9 12 12 10 6 10 1 8 9 7 14 13 11 11 10 6 9 12 12 11 9 10 12 10 11 10 7 6 5 6 9 10 9 9 13 nan
nan 9 17 11 6 7 10 9 10 15 16 6 15 8 3 8 13 10 5 10 9 11 13 15 13 11 13 11 9 11 9 6 7 7 7 9 5 5 5 8 9 10 10 nan
nan 10 9 9 6 8 7 7 11 9 12 7 4 11 20 15 14 11 3 5 7 8 8 8 10 14 12 11 10 10 9 8 8 5 6 7 7 8 6 6 9 8 7 nan
nan 5 8 8 11 10 10 9 6 7 5 7 10 11 13 13 7 7 9 8 6 7 6 7 8 14 16 11 10 9 8 8 8 9 9 9 8 9 10 9 10 10 9 nan
nan 5 8 10 9 10 14 12 7 8 9 12 11 8 8 1 2 5 8 9 7 9 7 6 9 9 13 17 16 16 9 9 9 9 9 10 11 11 11 10 9 9 10 nan
nan 16 11 7 7 9 10 5 9 10 12 11 8 11 6 1 5 4 5 8 9 7 7 9 9 7 7 14 23 18 15 13 11 10 10 11 12 10 10 10 10 8 8 nan
nan 11 4 8 3 6 10 10 11 12 10 7 11 11 9 7 6 7 6 6 7 7 10 9 9 9 9 7 18 19 15 14 14 13 12 13 11 10 10 10 10 9 9 nan
nan 9 9 6 12 17 14 11 7 6 9 8 9 9 13 10 7 5 4 7 11 13 10 10 9 9 7 8 12 21 19 13 13 13 11 10 11 10 9 10 10 10 10 nan
nan 7 7 11 13 12 9 5 2 6 11 8 3 6 9 4 7 6 5 9 12 12 11 12 10 6 7 10 12 19 16 13 11 10 10 11 11 9 10 10 10 9 9 nan
nan 8 7 0 -3 1 -0 3 7 7 2 7 1 -1 2 14 14 12 8 8 8 9 12 6 6 9 9 10 10 17 17 12 9 9 9 11 12 11 10 10 10 10 10 nan
nan 7 11 5 6 6 8 8 8 10 8 4 9 11 11 12 17 20 2 0 8 9 7 5 6 5 11 14 12 14 15 12 10 10 11 11 11 12 11 11 11 11 10 nan
nan 9 11 17 20 14 15 19 21 15 12 12 13 16 13 4 15 16 7 2 10 10 8 14 16 20 19 25 17 10 9 12 11 10 10 11 12 11 9 8 9 9 9 nan
nan 9 11 11 13 17 22 19 20 18 12 10 7 8 4 6 7 7 11 15 10 12 17 18 22 21 21 25 17 3 6 15 11 11 11 10 9 9 9 8 8 8 9 nan
nan 9 7 7 12 15 10 9 10 13 3 4 12 8 4 7 9 11 20 13 -0 3 8 10 20 15 13 14 13 12 13 12 11 10 10 9 8 6 8 9 8 11 12 nan
nan 7 8 12 9 8 6 8 8 6 12 15 8 3 3 12 15 18 9 -5 5 7 10 10 15 17 11 8 11 10 19 18 11 9 9 9 8 8 9 10 10 8 9 nan
nan 8 8 7 9 12 12 6 4 11 16 4 1 5 7 12 17 6 -6 1 10 12 10 9 17 17 12 9 6 20 29 9 8 9 9 8 8 11 11 10 8 8 10 nan
nan 13 9 7 9 11 14 7 10 9 1 -2 6 10 12 11 6 4 6 14 15 9 7 11 17 18 11 15 25 17 11 8 7 8 9 10 10 10 9 9 7 10 10 nan
nan 9 13 11 9 11 7 10 11 4 1 6 10 10 9 9 8 11 15 18 14 9 10 12 15 16 9 2 16 29 11 9 10 10 9 8 9 10 11 8 8 11 10 nan
nan 13 10 12 9 8 8 8 5 5 7 11 12 8 11 11 11 11 12 13 12 10 11 11 16 16 9 8 16 20 10 11 9 9 10 9 10 11 10 8 9 9 9 nan
nan 13 9 8 9 7 6 10 11 7 10 13 9 11 12 13 11 10 9 9 9 10 10 11 20 13 7 18 24 14 12 10 9 9 9 9 7 9 12 12 10 9 8 nan
nan 8 12 10 8 13 11 7 6 12 16 8 9 14 12 13 11 11 10 11 10 10 12 17 19 11 10 17 21 9 12 10 8 9 9 8 8 8 7 8 14 15 13 nan
nan nan nan nan nan nan nan nan nan nan nan nan nan nan nan nan nan nan nan nan nan nan nan nan nan nan nan nan nan nan nan nan nan nan nan nan nan nan nan nan nan nan nan nan
CAPE
0 0 0 0 0 0 0 0 0 0 0 0 0 0 0 0 0 0 0 0 0 0 0 0 0 0 0 0 0 0 0 110 1224 1354 1458 1482 1486 1183 848 748 805 893 1019 397
0 0 0 0 0 0 0 0 0 0 0 0 0 0 0 0 0 0 0 0 0 0 0 0 0 0 0 0 1 0 0 386 1616 1530 1573 1373 1388 740 1016 936 816 535 1003 869
0 0 0 0 0 0 0 0 0 0 0 0 0 0 0 0 0 0 0 0 0 0 0 0 0 0 0 0 0 94 15 376 1496 1537 1398 40 65 68 148 179 214 367 857 1138
0 0 0 0 0 0 0 0 0 0 0 0 0 0 0 0 0 0 0 0 0 0 0 0 0 0 0 0 0 56 102 49 833 605 424 439 262 157 37 55 304 356 999 1298
0 0 0 0 0 0 0 0 0 0 0 0 0 0 0 0 0 0 0 0 0 0 0 0 0 0 0 0 153 214 114 35 66 123 199 274 17 0 0 73 128 415 1013 1186
0 0 0 0 0 0 0 0 0 0 0 0 0 0 0 0 0 0 0 0 0 0 0 0 0 0 0 0 0 175 149 83 55 15 0 0 1 0 11 315 606 737 776 746
0 0 0 0 0 0 0 0 0 0 0 0 0 0 0 0 0 0 0 0 0 0 0 0 0 0 0 0 0 7 114 75 36 0 0 66 1 0 4 515 808 709 677 621
0 0 0 0 0 0 0 0 0 9 0 0 0 0 0 0 0 0 0 0 0 0 0 0 0 0 0 0 0 0 0 9 1 0 0 80 95 63 211 807 906 1010 917 740
0 0 0 0 0 0 0 0 0 17 26 67 0 0 0 0 0 0 0 0 0 0 0 0 0 0 0 0 0 0 0 0 0 1 3 66 201 331 728 891 841 604 399 435
0 0 0 0 0 0 0 0 2 0 15 24 0 0 0 0 0 0 0 0 0 0 0 0 0 0 0 0 0 0 0 0 0 0 122 453 378 1029 867 734 614 505 349 545
0 0 0 0 0 0 0 0 10 1 10 39 0 0 0 17 0 0 0 0 0 0 0 0 0 0 0 0 0 0 0 0 22 157 374 707 820 883 768 765 620 490 346 472
0 0 0 0 0 0 0 0 0 19 78 92 57 0 0 0 0 0 0 0 0 0 0 0 0 0 0 0 0 75 0 92 427 526 764 1060 1370 901 804 719 648 527 556 795
0 0 0 0 0 0 0 0 2 4 0 0 3 0 0 0 0 0 0 0 0 0 0 0 0 0 0 0 0 435 524 762 1093 1240 1328 1525 1677 1233 1152 1020 917 836 887 851
0 1 0 0 0 0 0 0 0 0 0 0 0 0 0 0 0 0 0 0 0 0 0 0 0 0 0 0 3 905 1306 1354 1589 1745 1583 1505 1719 1418 1236 1055 1034 923 878 719
7 22 6 6 6 0 2 2 9 8 0 0 0 0 0 0 0 0 0 0 0 0 0 0 0 0 0 0 97 748 1694 1769 1731 1478 1265 1046 871 805 783 651 671 557 566 306
7 7 27 15 0 0 0 0 0 0 0 0 0 0 0 0 0 0 0 0 0 0 0 0 0 0 20 1 495 111 1229 1224 1341 1161 977 936 880 869 643 477 139 2 0 0
0 3 1 0 0 0 0 5 13 13 5 0 0 0 0 2 0 0 0 1 15 14 102 90 243 351 259 559 44 0 416 1144 1046 1005 966 950 824 562 328 95 2 0 0 0
0 0 7 0 0 0 0 0 0 0 0 0 0 0 0 0 0 0 0 26 0 0 1 31 185 54 23 30 26 4 362 1107 1043 912 826 703 584 335 5 7 0 0 0 4
0 0 0 3 0 0 0 1 5 20 0 0 3 0 0 1 0 0 0 0 0 0 0 0 95 52 33 0 1 0 120 862 854 670 665 580 270 0 0 0 2 11 77 62
0 0 0 3 0 0 0 1 1 4 6 1 0 1 4 1 0 0 0 0 0 0 0 0 48 100 6 0 0 0 539 360 293 225 119 0 0 0 0 15 22 20 6 2
20 20 2 0 0 0 0 1 0 0 0 0 0 7 8 11 8 0 0 0 0 0 0 27 189 222 100 73 132 156 184 178 110 27 0 0 0 22 27 20 14 13 10 1
7 2 0 6 0 0 0 0 2 12 0 5 0 23 9 9 6 6 5 0 0 0 0 11 259 99 66 6 2 9 73 36 39 10 7 2 7 18 37 20 11 12 1 0
9 0 21 0 0 0 0 0 0 23 28 13 28 25 12 8 5 12 0 0 0 0 0 11 236 263 2 0 42 52 33 37 17 3 3 6 7 15 29 15 5 4 0 0
0 0 29 0 0 0 0 0 13 0 2 40 19 11 6 7 9 0 0 0 0 0 0 21 249 1 0 96 77 29 30 48 10 9 13 12 9 14 10 17 5 2 0 1
0 12 7 3 1 0 0 11 0 21 30 9 9 7 14 14 6 2 0 0 0 0 2 62 153 231 81 63 74 94 67 39 17 2 7 14 9 1 0 0 1 0 0 0
4 39 11 8 8 1 0 0 0 2 26 11 16 11 7 4 2 1 1 2 3 1 1 76 185 95 77 218 110 60 51 22 16 22 14 0 0 0 0 0 0 1 0 2